Regional Weather Roundup
Issued by NWS Wilmington, NC

Home | Current Version | Previous Version | Text Only | Print | Product List | Glossary On
Versions: 1 2 3 4 5 6 7 8 9 10 11 12 13 14 15 16 17 18 19 20 21 22 23 24 25 26 27
000
ASUS42 KILM 280113
RWRILM
RWRILM
REGIONAL HOURLY WEATHER ROUNDUP
NATIONAL WEATHER SERVICE WILMINGTON NC
900 PM EDT THU APR 27 2017

NOTE: "FAIR" INDICATES FEW OR NO CLOUDS BELOW 12,000 FEET WITH NO
SIGNIFICANT WEATHER AND/OR OBSTRUCTIONS TO VISIBILITY.

...............WFO WILMINGTON COUNTY WARNING AREA...............

......COASTAL NC AND SC COUNTIES......

CITY           SKY/WX    TMP DP  RH WIND       PRES   REMARKS
WILMINGTON     MOCLDY    74  68  81 S7        29.94R
N MYRTLE BEACH CLOUDY    73  71  93 SW10      29.93R
MYRTLE BEACH   MOCLDY    73  72  94 SW9       29.93R FOG

......INLAND NC AND SC COUNTIES.......

CITY           SKY/WX    TMP DP  RH WIND       PRES   REMARKS
LUMBERTON      CLOUDY    74  67  78 S9G18     29.88F
ELIZABETHTOWN  CLOUDY    74  67  78 S7        29.93R
WHITEVILLE     CLOUDY    73  69  85 S5        29.93R
FLORENCE       CLOUDY    74  65  73 S8        29.89S
DARLINGTON     CLOUDY    75  66  73 S7        29.89R
KINGSTREE      CLOUDY    73  61  64 SE5       29.90R
HARTSVILLE     FAIR      72  63  73 S5        29.88R
BENNETTSVILLE  FAIR      77  68  73 SE8       29.88R
CONWAY         FAIR      72  70  94 SE3       29.92S
GEORGETOWN     MOCLDY    73  72  94 S8G16     29.92R
MARION         FAIR      72  64  78 SE8       29.90F

....................REST OF NORTH CAROLINA......................

.........EASTERN NC.........

CITY           SKY/WX    TMP DP  RH WIND       PRES   REMARKS
CAPE HATTERAS  CLEAR     72  65  78 SW9       29.95R HAZE
JACKSONVILLE   CLOUDY    71  64  78 S6        29.94R
MOREHEAD CITY  PTCLDY    72  69  90 S9        29.94R
KENANSVILLE    CLOUDY    73  64  73 S5        29.92R
NEW BERN       PTCLDY    73  64  73 SW10      29.94R
ELIZABETH CITY CLEAR     73  64  73 S12       29.90R

.........CENTRAL NC.........

CITY           SKY/WX    TMP DP  RH WIND       PRES   REMARKS
RALEIGH DURHAM CLOUDY    74  62  66 S6        29.88S
ROCKY MOUNT    CLOUDY    73  63  70 S5        29.89R
ROANOKE RAPIDS NOT AVBL
FAYETTEVILLE   CLOUDY    76  66  71 S9        29.89R
HOFFMAN        CLOUDY    75  66  73 S10       29.88R

.........WESTERN NC.........

CITY           SKY/WX    TMP DP  RH WIND       PRES   REMARKS
CHARLOTTE      CLOUDY    73  65  75 S3        29.87R
GREENSBORO     LGT RAIN  69  64  84 S7        29.85S
HICKORY        NOT AVBL
BOONE          NOT AVBL
ASHEVILLE      NOT AVBL

.....................REST OF SOUTH CAROLINA.....................

.........EASTERN SC.........

CITY           SKY/WX    TMP DP  RH WIND       PRES   REMARKS
CHARLESTON     CLOUDY    75  64  68 S12       29.89R
BEAUFORT MCAS  CLOUDY    78  66  66 S8        29.88R
HILTON HEAD    CLOUDY    75  72  88 S10G20    29.90R

.........CENTRAL SC.........

CITY           SKY/WX    TMP DP  RH WIND       PRES   REMARKS
COLUMBIA       CLOUDY    77  66  68 S7        29.86R
ORANGEBURG     CLOUDY    75  62  64 SE3       29.88R
SUMTER SHAW    CLOUDY    75  63  66 SE6       29.86R

.........WESTERN SC.........

CITY           SKY/WX    TMP DP  RH WIND       PRES   REMARKS
GREENVILLE     NOT AVBL
ROCK HILL      CLOUDY    72  67  84 S5        29.87R
ANDERSON       CLOUDY    69  66  90 CALM      29.86R
CLEMSON        NOT AVBL
GREENWOOD      LGT RAIN  73  65  75 SW12      29.89R


...................COASTAL AND OFFSHORE REPORTS..................

................LOCAL PIERS AND NC RESERVE................


STATION/POSITION TIME  SKY/WX   TEMP    WIND        PRES    VSBY
                                AIR SEA DIR/SP/G
                 (UTC)          (F)     (DEG/KT/KT) (MB)    (MI)
JOHNY MRCER PIER 0048            72 72  220/  9/  9 1012.6R
NC RESRV MASNBRO 2345            72     220/  4     1013.0
OCEAN CREST PIER NOT AVBL
SPRINGMAID  PIER 0042                               1012.7R


................COASTAL AND OFFSHORE BUOYS................


STATION/POSITION TIME  SKY/WX   TEMP    WIND        PRES    VSBY
                                AIR SEA DIR/SP/G
                 (UTC)          (F)     (DEG/KT/KT) (MB)    (MI)
DIMNDSHOAL 41025 2350            77 77  220/ 21/ 23 1013.8
WVE H/P(F/S)=  5/ 8 SWL H/P/D(F/S/D)=  3/140/ 8

CAPE LOOKOUT     0000            73     200/  8/ 11 1013.5F
ONSLOW BAY 41036 NOT AVBL
ONSLOW BAY 41064 0008            74     200/ 12/ 16 1013.8F
ONSLOW BAY 41159 0043               72                N/A
WVE H/P(F/S)=  5/ 6 SWL H/P/D(F/S/D)=  2/100/13

MASNBO INL 41110 0059               71                N/A
WVE H/P(F/S)=  4/ 6

WILM HARBR 41108 0047               71                N/A
WVE H/P(F/S)=  4/ 6

27SE WRITB 41037 0008            74 73  180/ 12/ 16 1013.1F
FRYING PAN 41013 0040            75 73  190/ 14/ 16 1013.5R
SUNST NRSH 41024 0008            72 71  190/ 12/ 16 1012.1F
CAPRS NRSH 41029 0008            75 74  180/ 16/ 19 1011.7
EDISTO     41004 0040            75 74  170/ 14/ 16 1012.6R


..........OFFSHORE BUOYS BEYOND 100 NM OFFSHORE...........
.....IN A TRIANGLE---HAT TO BERMUDA TO BAHAMAS TO HAT.....


STATION/POSITION TIME  SKY/WX   TEMP    WIND        PRES    VSBY
                                AIR SEA DIR/SP/G
                 (UTC)          (F)     (DEG/KT/KT) (MB)    (MI)
150E HAT   41001 0040            73 72  190/ 16/ 19 1017.8R
W BERMUDA  41048 0040            71 71  160/  2/  4 1021.0R
ATLANTIC S 41049 2350            72 72   90/ 10/ 12 1022.9
WVE H/P(F/S)=  4/ 7 SWL H/P/D(F/S/D)=  3/ 50/ 7

E BAHAMAS  41046 0050                   100/ 10/ 12 1019.0R
WVE H/P(F/S)=  4/ 7 SWL H/P/D(F/S/D)=  3/110/ 7

NE BAHAMAS 41047 0040            75 77  120/ 12/ 14 1019.6R
120E CANVRL41010 0040            78 78  140/ 12/ 14 1015.5R

END




USA.gov is the U.S. government's official web portal to all federal, state and local government web resources and services.